User: anonymous   Login
Location: Unspecified
(0.0000°N, 0.0000°E)
Time: 00:48:19
(UTC+00:00)
Language:

STARLINK-32957 - Orbit

View from above orbital plane
View from above orbital plane
View from above satellite
View from above satellite

Ground track
Ground track

The orbit is defined by the following mean orbital elements,

1 63124U          26145.11792444 +.00000000 +00000-0 +43811-3 0 00009
2 63124  43.0038 301.3182 0001127 266.5317  93.5406 15.27596839    07
Epoch (UTC): 25 May 2026 02:49:48
Eccentricity: 0.0001127
inclination: 43.0038°
perigee height: 482 km
apogee height: 484 km
right ascension of ascending node: 301.3182°
argument of perigee: 266.5317°
revolutions per day: 15.27596839
mean anomaly at epoch: 93.5406°

The dashed part of the orbit path shows where the satellite is in the earth's shadow,  

DLR